Regional Weather Roundup
Issued by NWS

Home | Current Version | Previous Version | Graphics & Text | Print | Product List | Glossary On
Versions: 1 2 3 4 5 6 7 8 9 10 11 12 13 14 15 16 17 18 19 20 21 22 23 24 25 26 27 28 29 30 31 32 33 34 35 36 37 38 39 40 41 42 43 44 45 46 47 48 49 50
597
ASUS45 KBOI 200910
RWRID

IDAHO REGIONAL WEATHER ROUNDUP
NATIONAL WEATHER SERVICE BOISE ID
300 AM MDT FRI OCT 20 2017

NOTE: "FAIR" INDICATES FEW OR NO CLOUDS BELOW 12000 FEET
WITH NO SIGNIFICANT WEATHER AND/OR OBSTRUCTIONS TO VISIBILITY

IDZ012-014-201000-
SOUTHWEST IDAHO


CITY           SKY/WX    TMP DP  RH WIND       PRES   REMARKS
BOISE          CLOUDY    60  17  18 S14G23    29.49R
CALDWELL       CLOUDY    56  30  37 SE8       29.45F
MOUNTAIN HOME  MOCLDY    50  19  28 E8        29.51S
$$

IDZ016-017-201000-
SOUTHCENTRAL IDAHO


CITY           SKY/WX    TMP DP  RH WIND       PRES   REMARKS
BURLEY         CLOUDY    53  21  28 S6        29.56F
JEROME         CLOUDY    50  25  37 NE10      29.56F
TWIN FALLS     CLOUDY    54  22  28 S10       29.55F
$$

IDZ019>023-201000-
SOUTHEAST IDAHO


CITY           SKY/WX    TMP DP  RH WIND       PRES   REMARKS
IDAHO FALLS    CLEAR     54  25  32 S14       29.63F
POCATELLO      CLEAR     63  32  31 S21G32    29.59F
REXBURG        CLEAR     36  24  62 CALM      29.64F
$$

IDZ006-010-011-018-031-032-201000-
CENTRAL IDAHO MOUNTAINS


CITY           SKY/WX    TMP DP  RH WIND       PRES   REMARKS
MCCALL         CLOUDY    54  31  41 S12       29.47F
HAILEY         CLOUDY    39  21  48 NW7       29.64F WCI  34
STANLEY          N/A     48  15  26 SE10      29.59F
SALMON         MOCLDY    40  23  50 CALM      29.48F
CHALLIS        MOCLDY    40  19  43 CALM      29.52F
$$

IDZ002-004-006-007-026-201000-
NORTHERN IDAHO


CITY           SKY/WX    TMP DP  RH WIND       PRES   REMARKS
LEWISTON       RAIN      47  44  90 CALM      29.57R
LOWELL           N/A     46  44  93 NW5       29.50R
COEUR D`ALENE  LGT RAIN  46  43  89 SW10      29.52R
MULLAN PASS    LGT RAIN  35  32  88 MISG      29.47S FOG
$$




USA.gov is the U.S. government's official web portal to all federal, state and local government web resources and services.